Regional Weather Roundup
Issued by NWS

Home | Current Version | Previous Version | Graphics & Text | Print | Product List | Glossary On
Versions: 1 2 3 4 5 6 7 8 9 10 11 12 13 14 15 16 17 18 19 20 21 22 23 24 25 26 27 28 29 30 31 32 33 34 35 36 37 38 39 40 41 42 43 44 45 46 47 48 49 50
090
ASUS44 KJAN 262003
RWRMS

MISSISSIPPI HOURLY WEATHER ROUNDUP
NATIONAL WEATHER SERVICE JACKSON MS
300 PM CDT THU MAR 26 2015

NOTE: "FAIR: INDICATES FEW OR NO CLOUDS BELOW 12,000 FEET WITH NO
SIGNIFICANT WEATHER AND/OR OBSTRUCTIONS TO VISIBILITY.

MSZ001>002-007>008-010>013-018>021-025>028-034>036-262100-
NORTHWEST MISSISSIPPI

CITY           SKY/WX    TMP DP  RH WIND       PRES   REMARKS
CLARKSDALE       N/A     48  48 100 N26G33    29.97F
CLEVELAND      CLOUDY    51  50  99 N22G28    29.95R
GREENWOOD      CLOUDY    59  50  72 N14G28    29.88R
GREENVILLE     CLOUDY    53  46  77 N30G37    29.93R
OLIVE BRANCH   LGT RAIN  45  45 100 N17G26    29.97F FOG
OXFORD         FOG       50  48  93 N16G24    29.93R VSB 1
TUNICA         RAIN      46  45  93 N18       29.98F
$$

MSZ003>006-009-014>017-022>024-029>033-037>039-262100-
NORTHEAST MISSISSIPPI

CITY           SKY/WX    TMP DP  RH WIND       PRES   REMARKS
COLUMBUS AFB   LGT RAIN  73  52  46 S2        29.80F
CORINTH        CLOUDY    54  48  82 NW18      29.90R
GOLDN TRIANGLE PTSUNNY   75  48  38 W9        29.81F
STARKVILLE     CLOUDY    72  52  49 W5        29.82S
TUPELO         CLOUDY    65  53  65 N23G30    29.84R
$$

MSZ040-058-262100-
CENTRAL MISSISSIPPI

CITY           SKY/WX    TMP DP  RH WIND       PRES   REMARKS
JACKSON INTL   CLOUDY    74  56  53 S6        29.82F
JACKSON HAWKNS CLOUDY    74  56  53 NW7       29.82F
MERIDIAN KEY   CLOUDY    73  61  65 SW6       29.82F
MERIDIAN NAS   PTSUNNY   76  61  59 W10       29.81F
RAYMOND        CLOUDY    73  68  83 W12       29.82F
VICKSBURG      LGT RAIN  65  63  93 NW6       29.86S FOG
$$

MSZ059>079-262100-
SOUTH MISSISSIPPI

CITY           SKY/WX    TMP DP  RH WIND       PRES   REMARKS
BROOKHAVEN     TSTM      70  66  88 CALM      29.84F
HATTIESBURG    CLOUDY    74  64  71 S8        29.84F
MCCOMB         CLOUDY    73  63  70 S9        29.82F
NATCHEZ        CLOUDY    68  63  83 N10       29.86F
PINE BELT      CLOUDY    73  63  68 SW6       29.84F
$$

MSZ080>082-262100-
COASTAL MISSISSIPPI

CITY           SKY/WX    TMP DP  RH WIND       PRES   REMARKS
BAY ST LOUIS   CLOUDY    68  64  88 S6        29.87F
BILOXI         CLOUDY    68  66  92 S8        29.86S
PASCAGOULA     LGT RAIN  66  65  96 SW3       29.87F
GULFPORT       LGT RAIN  69  65  86 VRB5      29.86F
$$



USA.gov is the U.S. government's official web portal to all federal, state and local government web resources and services.